KF7HDR Weather Reports


Display with metric or nautical units.
time (UTC)temp
F
wind
direction
speed
MPH
gust
MPH
rain 1hr
in
rain 24hr
in
rain mn
in
humidity
%
barometer
mb
20260503193534 89 157 2.0 2.0 0.00 0.00 0.00 35 1012.4
20260503192532 88 157 1.0 2.0 0.00 0.00 0.00 35 1012.6
20260503191531 87 201 2.0 3.0 0.00 0.00 0.00 36 1012.7
20260503190549 85 0.0 1.0 0.00 0.00 0.00 36 1012.7
20260503185528 0 0.0 0.0 0.00 0.00 0.00 1012.8
20260503184526 0 0.0 0.0 0.00 0.00 0.00 1012.9
20260503183545 0 0.0 0.0 0.00 0.00 0.00 1013.1
20260503182524 0 0.0 0.0 0.00 0.00 0.00 1013.2
20260503181542 0 0.0 0.0 0.00 0.00 0.00 1013.3
20260503180521 0 0.0 0.0 0.00 0.00 0.00 1013.4
20260503175521 76 0.0 0.0 0.00 0.00 0.00 47 1013.5
20260503174539 74 133 1.0 2.0 0.00 0.00 0.00 50 1013.5
20260503173517 72 0.0 0.0 0.00 0.00 0.00 51 1013.6
20260503172516 71 308 3.0 5.0 0.00 0.00 0.00 53 1013.6
20260503171615 71 177 2.0 4.0 0.00 0.00 0.00 54 1013.6
20260503170614 70 165 3.0 7.0 0.00 0.00 0.00 58 1013.6
20260503150618 58 154 2.0 3.0 0.00 0.00 0.00 84 1013.9
20260503130603 54 66 2.0 3.0 0.00 0.00 0.00 88 1013.5
20260503110528 57 0.0 0.0 0.00 0.00 0.00 84 1013.9
20260503081606 56 0.0 0.0 0.00 0.00 0.00 92 1014.5
20260503080605 56 0.0 0.0 0.00 0.00 0.00 91 1014.4
20260503072600 57 0.0 0.0 0.00 0.00 0.00 89 1014.4
20260503071559 57 0.0 0.0 0.00 0.00 0.00 88 1014.6
20260503070558 57 0.0 0.0 0.00 0.00 0.00 88 1014.6
20260503054547 60 0.0 0.0 0.00 0.00 0.00 83 1014.3
20260503053545 60 0.0 0.0 0.00 0.00 0.00 82 1014.4
20260503052605 60 0.0 1.0 0.00 0.00 0.00 82 1014.2
20260503051543 61 0.0 0.0 0.00 0.00 0.00 81 1014.4
20260503050622 61 0.0 0.0 0.00 0.00 0.00 81 1014.9
20260503045601 60 0.0 0.0 0.00 0.00 0.00 82 1014.9
20260503044539 60 0.0 0.0 0.00 0.00 0.00 82 1014.6
20260503043538 60 0.0 0.0 0.00 0.00 0.00 82 1014.5
20260503042537 60 0.0 0.0 0.00 0.00 0.00 82 1014.6
20260503041535 61 0.0 0.0 0.00 0.00 0.00 81 1014.8
20260503040534 61 0.0 0.0 0.00 0.00 0.00 81 1014.8
20260503035532 62 0.0 0.0 0.00 0.00 0.00 79 1014.7
20260503034531 62 0.0 0.0 0.00 0.00 0.00 78 1014.5
20260503033529 62 0.0 0.0 0.00 0.00 0.00 78 1014.5
20260503032529 63 0.0 0.0 0.00 0.00 0.00 77 1014.4
20260503031527 63 0.0 0.0 0.00 0.00 0.00 76 1014.3
20260503030526 64 0.0 1.0 0.00 0.00 0.00 74 1014.4
20260503025524 64 0.0 0.0 0.00 0.00 0.00 73 1014.6
20260503024523 64 0.0 2.0 0.00 0.00 0.00 73 1014.6
20260503023521 65 181 1.0 3.0 0.00 0.00 0.00 72 1014.6
20260503022519 65 143 2.0 4.0 0.00 0.00 0.00 71 1014.7
20260503021518 67 210 2.0 4.0 0.00 0.00 0.00 67 1014.7
20260503020517 68 152 1.0 3.0 0.00 0.00 0.00 65 1014.2
20260503015615 69 231 1.0 2.0 0.00 0.00 0.00 65 1013.8
20260503014613 70 168 2.0 3.0 0.00 0.00 0.00 63 1013.7
20260503013612 70 0.0 2.0 0.00 0.00 0.00 62 1013.6
20260503012611 71 145 1.0 2.0 0.00 0.00 0.00 60 1013.4
20260503011630 71 102 0.0 2.0 0.00 0.00 0.00 58 1013.4
20260503010608 73 110 0.0 3.0 0.00 0.00 0.00 57 1013.5
20260503005607 74 94 1.0 2.0 0.00 0.00 0.00 55 1013.5
20260503004606 73 97 0.0 2.0 0.00 0.00 0.00 55 1013.5
20260503003604 73 175 0.0 3.0 0.00 0.00 0.00 55 1013.4
20260503002603 73 78 0.0 2.0 0.00 0.00 0.00 55 1013.4
20260503001622 73 0.0 1.0 0.00 0.00 0.00 56 1013.5
20260503000601 72 155 1.0 3.0 0.00 0.00 0.00 56 1013.6
20260502235619 72 125 2.0 5.0 0.00 0.00 0.00 56 1013.5
20260502234558 72 99 2.0 2.0 0.00 0.00 0.00 56 1013.7
20260502233557 71 0.0 2.0 0.00 0.00 0.00 56 1013.7
20260502232555 70 143 1.0 3.0 0.00 0.00 0.00 57 1014.0
20260502231614 71 144 1.0 3.0 0.00 0.00 0.00 57 1014.0
20260502230553 71 129 1.0 2.0 0.00 0.00 0.00 57 1014.1
20260502225550 71 181 3.0 3.0 0.00 0.00 0.00 56 1014.2
20260502224549 69 163 0.0 2.0 0.00 0.00 0.00 58 1014.4
20260502223547 69 190 1.0 2.0 0.00 0.00 0.00 57 1014.6
20260502222545 71 120 1.0 3.0 0.00 0.00 0.00 56 1014.7
20260502221545 70 132 2.0 4.0 0.00 0.00 0.00 56 1014.8
20260502220603 69 164 2.0 3.0 0.00 0.00 0.00 58 1015.1
20260502215541 69 177 2.0 4.0 0.00 0.00 0.00 57 1015.2
20260502214540 69 177 1.0 4.0 0.00 0.00 0.00 57 1015.2
20260502213539 70 0.0 2.0 0.00 0.00 0.00 57 1015.3
20260502212538 67 104 1.0 2.0 0.00 0.00 0.00 61 1015.5
20260502211537 65 136 1.0 3.0 0.00 0.00 0.00 63 1015.7
20260502210535 65 124 1.0 5.0 0.00 0.00 0.00 63 1015.9
20260502205534 66 140 1.0 4.0 0.00 0.00 0.00 62 1016.0
20260502204553 64 141 1.0 3.0 0.00 0.00 0.00 64 1016.2
20260502203531 64 108 2.0 4.0 0.00 0.00 0.00 63 1016.3
20260502202530 64 103 1.0 3.0 0.00 0.00 0.00 62 1016.4
20260502201549 67 132 0.0 2.0 0.00 0.00 0.00 60 1016.5
20260502200528 63 148 1.0 2.0 0.00 0.00 0.00 66 1016.6
20260502195526 63 309 0.0 2.0 0.00 0.00 0.00 64 1016.7
20260502194545 62 268 0.0 2.0 0.00 0.00 0.00 67 1016.8